7 * 24
多渠道服务支持
IRIDIUM 138 是 Iridium 卫星通信网络中的一颗低轨卫星,属于 Iridium NEXT 项目的一部分。该卫星由 Iridium Communications 拥有并运营,于 2017 年发射,用于提供全球范围内的语音和数据通信服务。IRIDIUM 138 与其他 Iridium 卫星共同构建了一个覆盖全球的星座,支持航空、航海、政府和应急通信等领域。卫星运行在约 780 公里的高度,设计寿命为 15 年,具备抗干扰和高可靠性的特点。
美国
(US)
| 数据来源 | 国际轨道数据 |
| 星历时间: | 2025-10-28T17:44:31+0800 22小时前 查看轨道信息 |
| 半长轴: | 7155.805km |
| 偏心率: | 0.0002489 |
| 轨道倾角: | 86.398° |
| 近地点辐角 | 91.690° |
| 升交点赤经 | 58.550° |
| 平近点角 | 268.458° |
| 近地点: | 775.888km |
| 远地点: | 779.452km |
| 周期: | 100.403分钟 |
| 每日圈数: | 14.342177 |